Flight Track Log - Related Links

Times and Time Zones

All times are in EDT time to prevent confusion due to time zone crossing. See the SKW4472 flight status page for this flight to view local times or setup timezone preferences in your user account.

Time Position Orientation Groundspeed Altitude Reporting Facility
EDT Latitude Longitude Course Direction KTS MPH feet Rate Location/Type
07:54PM 35.0167 -89.9833 202° Southwest 144 166 1,100  Level KMEM
07:55PM 34.9833 -90.0000 202° Southwest 171 197 2,100 2,351 Climbing KMEM
07:56PM 34.9500 -90.0333 219° Southwest 216 249 4,900 3,074 Climbing KMEM
07:57PM 34.9500 -90.1167 270° West 243 280 8,300 3,000 Climbing KMEM
07:58PM 34.9667 -90.1833 287° West 254 292 10,900 2,357 Climbing KMEM
07:58PM 35.0094 -90.2050 337° Northwest 277 319 11,600 2,360 Climbing Memphis Center
07:59PM 35.0992 -90.2022 North 310 357 14,400 2,521 Climbing Memphis Center
08:00PM 35.1886 -90.1842 North 316 364 16,600 2,380 Climbing Memphis Center
08:01PM 35.2806 -90.1611 12° North 327 376 19,200 2,400 Climbing Memphis Center
08:02PM 35.3783 -90.1381 11° North 340 391 21,400 1,966 Climbing Memphis Center
08:03PM 35.4786 -90.1122 12° North 359 413 23,100 1,600 Climbing Memphis Center
08:04PM 35.5828 -90.0864 11° North 373 429 24,600 1,400 Climbing Memphis Center
08:05PM 35.6808 -90.0656 10° North 386 444 25,900 1,550 Climbing Memphis Center
08:06PM 35.7953 -90.0525 North 386 444 27,700 1,500 Climbing Memphis Center
08:07PM 35.9122 -90.0622 356° North 391 450 28,900 1,150 Climbing Memphis Center
08:08PM 36.0289 -90.0747 355° North 406 467 30,000 1,240 Climbing Memphis Center
08:09PM 36.1500 -90.0844 356° North 422 486 31,400 1,450 Climbing Memphis Center
08:10PM 36.2689 -90.0994 354° North 427 491 32,900 1,361 Climbing Memphis Center
08:11PM 36.3897 -90.1069 357° North 427 491 34,100 1,100 Climbing Memphis Center
08:12PM 36.5086 -90.1194 355° North 427 491 35,100 942 Climbing Memphis Center
08:13PM 36.6317 -90.1294 356° North 427 491 36,000 450 Climbing Memphis Center
08:14PM 36.7525 -90.1419 355° North 427 491 36,000  Level Memphis Center
08:15PM 36.8733 -90.1547 355° North 427 491 36,000  Level Memphis Center
08:17PM 37.0486 -90.1678 357° North 436 502 36,000  Level Kansas City Center
08:18PM 37.1950 -90.1814 356° North 437 503 36,000  Level Kansas City Center
08:19PM 37.3164 -90.1944 355° North 437 503 36,000  Level Kansas City Center
08:20PM 37.4289 -90.2203 350° North 435 501 36,000  Level Kansas City Center
08:21PM 37.5436 -90.2692 341° North 434 499 36,000  Level Kansas City Center
08:22PM 37.6592 -90.3153 342° North 436 502 36,000  Level Kansas City Center
08:23PM 37.7750 -90.3614 343° North 436 502 36,000  Level Kansas City Center
08:24PM 37.9153 -90.4178 342° North 439 505 36,000  Level Kansas City Center
08:25PM 38.0333 -90.4644 343° North 438 504 36,000  Level Kansas City Center
08:26PM 38.1497 -90.5111 343° North 434 499 36,000  Level Kansas City Center
08:27PM 38.2675 -90.5578 343° North 441 507 36,000  Level Kansas City Center
08:28PM 38.3853 -90.6064 342° North 442 509 36,000  Level Kansas City Center
08:29PM 38.5064 -90.6775 335° Northwest 431 496 36,000  Level Kansas City Center
08:30PM 38.5961 -90.7503 328° Northwest 425 489 36,000  Level Kansas City Center
08:31PM 38.6986 -90.8250 330° Northwest 422 486 36,000  Level Kansas City Center
08:32PM 38.8211 -90.9136 331° Northwest 419 482 36,000  Level Kansas City Center
08:33PM 38.9297 -90.9725 337° Northwest 425 489 36,000  Level Kansas City Center
08:34PM 39.0453 -91.0144 344° North 431 496 36,000  Level Kansas City Center
08:35PM 39.1608 -91.0578 344° North 431 496 36,000  Level Kansas City Center
08:36PM 39.2772 -91.1028 343° North 434 499 36,000  Level Kansas City Center
08:38PM 39.3936 -91.1450 344° North 434 499 36,000  Level Kansas City Center
08:39PM 39.5111 -91.1903 343° North 438 504 36,000  Level Kansas City Center
08:40PM 39.6525 -91.2447 343° North 441 507 36,000  Level Kansas City Center
08:41PM 39.7467 -91.2792 344° North 440 506 36,000  Level Kansas City Center
08:42PM 39.8953 -91.3356 344° North 445 512 36,000  Level Kansas City Center
08:43PM 40.0125 -91.3803 344° North 444 511 36,000  Level Kansas City Center
08:44PM 40.1289 -91.4250 344° North 443 510 36,000  Level Kansas City Center
08:45PM 40.2456 -91.4706 343° North 443 510 36,000  Level Kansas City Center
08:46PM 40.3625 -91.5161 343° North 443 510 36,000  Level Kansas City Center
08:47PM 40.4783 -91.5619 343° North 439 505 36,000  Level Chicago Center
08:48PM 40.5939 -91.6056 344° North 438 504 36,000  Level Chicago Center
08:49PM 40.7114 -91.6519 343° North 441 507 36,000  Level Chicago Center
08:50PM 40.8558 -91.7097 343° North 454 522 36,000  Level Chicago Center
08:51PM 40.9797 -91.7583 344° North 467 537 36,000  Level Chicago Center
08:52PM 41.1042 -91.8083 343° North 471 542 36,000  Level Chicago Center
08:53PM 41.2281 -91.8575 343° North 469 540 36,000  Level Chicago Center
08:54PM 41.3569 -91.9083 344° North 470 541 36,000  Level Chicago Center
08:55PM 41.4797 -91.9578 343° North 465 535 36,000  Level Chicago Center
08:56PM 41.6261 -92.0169 343° North 461 531 36,000  Level Chicago Center
08:57PM 41.7469 -92.0653 343° North 457 526 36,000  Level Chicago Center
08:58PM 41.8642 -92.1128 343° North 444 511 36,000  Level Chicago Center
08:59PM 41.9797 -92.1608 343° North 438 504 36,000  Level Chicago Center
09:00PM 42.0944 -92.2075 343° North 435 501 36,000 -202 Level Chicago Center
09:00PM 42.1403 -92.2272 342° North 433 498 35,700 -1,067 Descending Minneapolis Center
09:02PM 42.2789 -92.2853 343° North 434 499 34,400 -1,095 Descending Minneapolis Center
09:03PM 42.3967 -92.3347 343° North 440 506 33,400 -968 Descending Minneapolis Center
09:04PM 42.5156 -92.3828 343° North 443 510 32,400 -677 Descending Minneapolis Center
09:05PM 42.6289 -92.4483 337° Northwest 441 507 32,000 -194 Descending Minneapolis Center
09:06PM 42.7414 -92.5156 336° Northwest 443 510 32,000 -145 Level Minneapolis Center
09:07PM 42.8786 -92.5947 337° Northwest 444 511 31,700 -629 Descending Minneapolis Center
09:08PM 42.9908 -92.6617 336° Northwest 442 509 30,700 -1,016 Descending Minneapolis Center
09:09PM 43.1042 -92.7294 336° Northwest 445 512 29,600 -1,161 Descending Minneapolis Center
09:10PM 43.2153 -92.7936 337° Northwest 436 502 28,300 -1,258 Descending Minneapolis Center
09:11PM 43.3217 -92.8572 336° Northwest 422 486 27,000 -1,258 Descending Minneapolis Center
09:12PM 43.4256 -92.9208 336° Northwest 413 475 25,700 -1,355 Descending Minneapolis Center
09:13PM 43.5583 -92.9736 344° North 422 486 24,200 -1,694 Descending Minneapolis Center
09:14PM 43.6817 -92.9486 North 443 510 22,200 -2,129 Descending Minneapolis Center
09:15PM 43.7989 -92.9564 357° North 430 495 19,800 -2,177 Descending Minneapolis Center
09:16PM 43.8947 -93.0111 338° Northwest 395 455 17,700 -2,022 Descending Minneapolis Center
09:16PM 43.9511 -93.0425 338° Northwest 346 398 16,700 -1,837 Descending FAA TRACON SMA TRACON (SMA)
09:17PM 43.9769 -93.0575 337° Northwest 334 384 16,200 -1,692 Descending FAA TRACON SMA TRACON (SMA)
09:17PM 44.0028 -93.0761 333° Northwest 332 382 15,600 -2,250 Descending FAA TRACON SMA TRACON (SMA)
09:17PM 44.0350 -93.0947 337° Northwest 329 379 14,700 -2,250 Descending FAA TRACON SMA TRACON (SMA)
09:18PM 44.0600 -93.1111 335° Northwest 325 374 14,100 -1,800 Descending FAA TRACON SMA TRACON (SMA)
09:18PM 44.0847 -93.1286 333° Northwest 321 369 13,500 -1,950 Descending FAA TRACON SMA TRACON (SMA)
09:18PM 44.1150 -93.1461 337° Northwest 309 356 12,800 -1,950 Descending FAA TRACON SMA TRACON (SMA)
09:19PM 44.1389 -93.1631 333° Northwest 308 354 12,200 -1,800 Descending FAA TRACON SMA TRACON (SMA)
09:19PM 44.1633 -93.1778 337° Northwest 311 358 11,600 -1,950 Descending FAA TRACON SMA TRACON (SMA)
09:19PM 44.1942 -93.1978 335° Northwest 314 361 10,900 -1,814 Descending FAA TRACON SMA TRACON (SMA)
09:20PM 44.2192 -93.2122 338° Northwest 315 362 10,300 -1,395 Descending FAA TRACON SMA TRACON (SMA)
09:20PM 44.2522 -93.2172 354° North 313 360 9,900 -811 Descending FAA TRACON SMA TRACON (SMA)
09:20PM 44.2775 -93.2136 North 302 348 9,800 -486 Descending FAA TRACON SMA TRACON (SMA)
09:21PM 44.3019 -93.2108 North 287 330 9,600 -900 Descending FAA TRACON SMA TRACON (SMA)
09:21PM 44.3261 -93.2056 North 282 325 9,200 -1,200 Descending FAA TRACON SMA TRACON (SMA)
09:21PM 44.3561 -93.2000 North 282 325 8,800 -1,024 Descending FAA TRACON SMA TRACON (SMA)
09:22PM 44.3803 -93.1958 North 282 325 8,500 -900 Descending FAA TRACON SMA TRACON (SMA)
09:22PM 44.4039 -93.1911 North 280 322 8,200 -769 Descending FAA TRACON SMA TRACON (SMA)
09:22PM 44.4328 -93.1853 North 271 312 8,000 -585 Descending FAA TRACON SMA TRACON (SMA)
09:23PM 44.4544 -93.1819 North 260 299 7,800 -585 Descending FAA TRACON SMA TRACON (SMA)
09:23PM 44.4753 -93.1772 North 247 284 7,600 -600 Descending FAA TRACON SMA TRACON (SMA)
09:23PM 44.4994 -93.1725 North 230 265 7,400 -462 Descending FAA TRACON SMA TRACON (SMA)
09:24PM 44.5181 -93.1697 North 219 252 7,300 -308 Descending FAA TRACON SMA TRACON (SMA)
09:24PM 44.5367 -93.1658 North 218 251 7,200 -450 Descending FAA TRACON SMA TRACON (SMA)
09:24PM 44.5611 -93.1622 North 227 261 7,000 -300 Descending FAA TRACON SMA TRACON (SMA)
09:25PM 44.5814 -93.1636 357° North 235 270 7,000 -450 Level FAA TRACON SMA TRACON (SMA)
09:25PM 44.6014 -93.1686 350° North 241 277 6,700 -750 Descending FAA TRACON SMA TRACON (SMA)
09:25PM 44.6267 -93.1747 350° North 238 274 6,500 -900 Descending FAA TRACON SMA TRACON (SMA)
09:26PM 44.6458 -93.1792 351° North 229 264 6,100 -1,200 Descending FAA TRACON SMA TRACON (SMA)
09:26PM 44.6647 -93.1850 348° North 226 260 5,700 -900 Descending FAA TRACON SMA TRACON (SMA)
09:26PM 44.6861 -93.1903 350° North 205 236 5,500 -750 Descending FAA TRACON SMA TRACON (SMA)
09:27PM 44.7011 -93.1939 350° North 185 213 5,200 -1,200 Descending FAA TRACON SMA TRACON (SMA)
09:27PM 44.7158 -93.1978 349° North 174 200 4,700 -1,800 Descending FAA TRACON SMA TRACON (SMA)
09:27PM 44.7342 -93.2022 350° North 172 198 4,000 -1,500 Descending FAA TRACON SMA TRACON (SMA)
09:28PM 44.7478 -93.2058 349° North 165 190 3,700 -1,050 Descending FAA TRACON SMA TRACON (SMA)
09:28PM 44.7608 -93.2100 347° North 157 181 3,300 -1,350 Descending FAA TRACON SMA TRACON (SMA)
09:28PM 44.7761 -93.2144 348° North 148 170 2,800 -1,350 Descending FAA TRACON SMA TRACON (SMA)
09:29PM 44.7881 -93.2167 352° North 143 165 2,400 -750 Descending FAA TRACON SMA TRACON (SMA)
09:29PM 44.8000 -93.2192 352° North 141 162 2,300 -600 Descending FAA TRACON SMA TRACON (SMA)
09:29PM 44.8142 -93.2228 350° North 135 155 2,000 -878 Descending FAA TRACON SMA TRACON (SMA)
09:30PM 44.8250 -93.2258 349° North 130 150 1,700 -585 Descending FAA TRACON SMA TRACON (SMA)
09:30PM 44.8361 -93.2289 349° North 131 151 1,600 -600 Descending FAA TRACON SMA TRACON (SMA)
09:30PM 44.8497 -93.2325 349° North 129 148 1,300 -900 Descending FAA TRACON SMA TRACON (SMA)
09:31PM 44.8558 -93.2347 346° North 103 119 1,000 -900 Descending FAA TRACON SMA TRACON (SMA)
09:33PM 44.8667 -93.2167 North  Level FlightAware Approximate

Login

Don't have an account? Register now (free) for customized features, flight alerts, and more!